GW0571 Weather Reports


Display with metric or nautical units.
time (UTC)temp
F
wind
direction
speed
MPH
gust
MPH
rain 1hr
in
rain 24hr
in
rain mn
in
humidity
%
barometer
mb
20260902030121 68 352 0.0 0.0 0.00 1.02 1.02 96
20260902025621 68 352 0.0 0.0 0.00 1.02 1.02 96
20260902025116 68 352 0.0 0.0 0.00 1.02 1.02 96
20260902024612 68 352 0.0 1.0 0.00 1.02 1.02 96
20260902024106 68 353 0.0 0.0 0.00 1.02 1.02 96
20260902023602 68 353 0.0 0.0 0.00 1.02 1.02 96
20260902023056 69 129 0.0 0.0 0.00 1.02 1.02 96
20260902022556 69 129 0.0 0.0 0.00 1.02 1.02 96
20260902022052 69 129 0.0 0.0 0.00 1.02 1.02 96
20260902021547 69 166 0.0 0.0 0.00 1.02 1.02 96
20260902021042 69 166 0.0 0.0 0.00 1.02 1.02 96
20260902020538 69 166 0.0 1.0 0.00 1.02 1.02 96
20260902020034 69 129 0.0 0.0 0.00 1.02 1.02 96
20260902015529 69 129 0.0 1.0 0.00 1.02 1.02 96
20260902015025 69 345 0.0 0.0 0.00 1.02 1.02 96
20260902014521 69 0 0.0 1.0 0.00 1.02 1.02 96
20260902014016 69 0 0.0 0.0 0.00 1.02 1.02 96
20260902013511 69 0 0.0 0.0 0.00 1.02 1.02 96
20260902013006 70 0 0.0 1.0 0.00 1.02 1.02 96
20260902012501 70 212 0.0 0.0 0.00 1.02 1.02 96
20260902011957 70 212 0.0 0.0 0.00 1.02 1.02 96
20260902011452 70 212 0.0 0.0 0.00 1.02 1.02 96
20260902010951 70 212 0.0 0.0 0.00 1.02 1.02 96
20260902010447 70 212 0.0 0.0 0.00 1.02 1.02 96
20260902005946 70 212 0.0 1.0 0.00 1.02 1.02 96
20260902005445 70 142 0.0 1.0 0.00 1.02 1.02 96
20260902004942 70 0 0.0 1.0 0.00 1.02 1.02 96
20260902004441 71 142 0.0 0.0 0.00 1.02 1.02 96
20260902003936 71 164 0.0 0.0 0.00 1.02 1.02 96
20260902003436 71 164 0.0 1.0 0.00 1.02 1.02 96
20260902002932 71 15 0.0 0.0 0.00 1.02 1.02 96
20260902002427 71 15 0.0 0.0 0.00 1.02 1.02 96
20260902001926 71 15 0.0 0.0 0.00 1.02 1.02 96
20260902001421 72 15 0.0 0.0 0.00 1.02 1.02 96
20260902000917 72 15 0.0 0.0 0.00 1.02 1.02 96
20260902000414 72 15 0.0 0.0 0.00 1.02 1.02 96
20260901235906 72 129 0.0 0.0 0.00 1.02 1.02 96
20260901235401 73 129 0.0 0.0 0.00 1.02 1.02 96
20260901234856 73 129 0.0 0.0 0.00 1.02 1.02 96
20260901234350 73 129 0.0 0.0 0.00 1.02 1.02 96 1015.2
20260901233845 73 129 0.0 0.0 0.00 1.02 1.02 96 1015.2
20260901233341 73 129 0.0 0.0 0.00 1.02 1.02 96 1015.2
20260901232836 73 166 0.0 1.0 0.00 1.02 1.02 95 1015.2
20260901232331 74 205 0.0 1.0 0.00 1.02 1.02 95 1015.2
20260901231827 74 333 0.0 0.0 0.00 1.02 1.02 94 1015.2
20260901231323 75 333 0.0 0.0 0.00 1.02 1.02 93 1015.2
20260901230820 75 214 0.0 0.0 0.00 1.02 1.02 92 1015.2
20260901230319 76 224 0.0 1.0 0.00 1.02 1.02 91 1015.2
20260901225815 76 134 0.0 2.0 0.00 1.02 1.02 91 1015.2
20260901225314 77 89 0.0 0.0 0.00 1.02 1.02 89 1015.2
20260901224809 79 242 0.0 0.0 0.00 1.02 1.02 87 1015.4
20260901224306 79 242 0.0 0.0 0.00 1.02 1.02 86 1015.2
20260901223801 81 293 0.0 1.0 0.00 1.02 1.02 83 1015.0
20260901223256 80 257 0.0 1.0 0.00 1.02 1.02 83 1015.1
20260901222752 80 202 0.0 1.0 0.00 1.02 1.02 85 1015.1
20260901222248 80 246 0.0 1.0 0.00 1.02 1.02 85 1015.0
20260901221744 78 6 0.0 2.0 0.00 1.02 1.02 87 1015.2
20260901221239 78 309 0.0 2.0 0.00 1.02 1.02 85 1015.0
20260901220739 78 315 2.0 5.0 0.00 1.02 1.02 85 1015.3
20260901220233 79 317 2.0 3.0 0.00 1.02 1.02 85 1015.4
20260901215731 79 324 4.0 4.0 0.00 1.02 1.02 84 1015.2
20260901215232 79 293 0.0 1.0 0.00 1.02 1.02 86 1015.3
20260901214730 78 359 2.0 3.0 0.00 1.02 1.02 87 1015.0
20260901214223 78 336 0.0 2.0 0.00 1.02 1.02 89 1015.2
20260901213718 78 326 2.0 2.0 0.00 1.02 1.02 87 1015.1
20260901213213 79 260 0.0 4.0 0.00 1.02 1.02 84 1015.0
20260901212712 80 265 1.0 2.0 0.00 1.02 1.02 80 1015.0
20260901212208 80 232 4.0 5.0 0.00 1.02 1.02 81 1015.0
20260901211708 78 242 0.0 2.0 0.00 1.02 1.02 86 1015.0
20260901211205 78 327 2.0 3.0 0.00 1.02 1.02 85 1014.9
20260901210700 79 315 2.0 3.0 0.00 1.02 1.02 82 1014.8
20260901210156 80 316 3.0 4.0 0.00 1.02 1.02 83 1014.8
20260901205651 80 321 2.0 3.0 0.00 1.02 1.02 84 1014.8
20260901205146 79 299 0.0 3.0 0.00 1.02 1.02 86 1014.8
20260901204641 78 236 5.0 5.0 0.00 1.02 1.02 86 1015.1
20260901204137 78 315 0.0 4.0 0.00 1.02 1.02 88 1015.1
20260901203637 78 304 0.0 2.0 0.00 1.02 1.02 90 1015.2
20260901203132 78 256 2.0 3.0 0.00 1.02 1.02 89 1015.0
20260901202631 78 25 0.0 2.0 0.00 1.02 1.02 90 1015.0
20260901202127 77 129 0.0 1.0 0.00 1.02 1.02 92 1015.2
20260901201623 77 336 0.0 0.0 0.00 1.02 1.02 92 1015.2
20260901201122 77 322 0.0 2.0 0.00 1.02 1.02 92 1015.4
20260901200622 77 326 0.0 3.0 0.00 1.02 1.02 91 1015.3
20260901200117 77 62 0.0 1.0 0.00 1.02 1.02 92 1015.2
20260901195615 77 37 0.0 1.0 0.00 1.02 1.02 93 1015.1
20260901195115 77 314 0.0 2.0 0.00 1.02 1.02 93 1015.2
20260901194610 76 325 0.0 2.0 0.00 1.02 1.02 94 1015.4
20260901194105 76 309 0.0 1.0 0.00 1.02 1.02 95 1015.1
20260901193601 76 313 1.0 2.0 0.00 1.02 1.02 95 1015.3
20260901193055 76 180 0.0 0.0 0.00 1.02 1.02 92 1015.3
20260901192550 77 180 0.0 0.0 0.00 1.02 1.02 91 1015.4
20260901192046 77 180 0.0 0.0 0.00 1.02 1.02 91 1015.2
20260901191542 76 130 0.0 1.0 0.00 1.02 1.02 91 1015.1
20260901191038 77 201 1.0 3.0 0.00 1.02 1.02 90 1015.1
20260901190533 76 255 1.0 4.0 0.00 1.02 1.02 91 1015.1
20260901190032 76 229 3.0 3.0 0.00 1.02 1.02 91 1015.2
20260901185531 76 226 2.0 5.0 0.00 1.02 1.02 90 1015.2
20260901185030 77 255 3.0 3.0 0.00 1.02 1.02 90 1015.3
20260901184525 76 245 6.0 7.0 0.00 1.02 1.02 90 1015.0
20260901184021 76 242 3.0 7.0 0.00 1.02 1.02 92 1015.3
20260901183515 75 238 3.0 5.0 0.00 1.02 1.02 93 1015.0
20260901183011 75 260 3.0 3.0 0.00 1.02 1.02 96 1015.3
20260901182506 74 277 1.0 4.0 0.00 1.02 1.02 96 1015.0
20260901182001 73 235 3.0 4.0 0.00 1.02 1.02 96 1015.0
20260901181500 73 239 2.0 4.0 0.00 1.02 1.02 96 1015.2
20260901181000 73 240 3.0 3.0 0.00 1.02 1.02 96 1015.0
20260901180459 72 254 2.0 4.0 0.00 1.02 1.02 96 1014.9
20260901175957 73 230 0.0 1.0 0.00 1.02 1.02 96 1014.8
20260901175452 72 141 0.0 2.0 0.00 1.02 1.02 96 1014.9
20260901174947 72 247 1.0 4.0 0.00 1.02 1.02 96 1014.8
20260901174443 72 248 2.0 4.0 0.00 1.02 1.02 96 1014.8
20260901173939 72 248 2.0 3.0 0.00 1.02 1.02 96 1014.9
20260901173433 73 67 2.0 3.0 0.00 1.02 1.02 96 1014.8
20260901172930 73 115 1.0 2.0 0.00 1.02 1.02 96 1015.0
20260901172425 73 264 1.0 3.0 0.00 1.02 1.02 96 1014.9
20260901171923 72 93 1.0 3.0 0.00 1.02 1.02 96 1014.7
20260901171422 71 252 2.0 3.0 0.00 1.02 1.02 96 1014.9
20260901170920 71 236 1.0 2.0 0.00 1.02 1.02 96 1014.9
20260901170416 70 146 0.0 4.0 0.00 1.02 1.02 96 1014.9
20260901165915 71 127 1.0 2.0 0.00 1.02 1.02 96 1014.8
20260901165410 70 227 1.0 3.0 0.00 1.02 1.02 96 1015.1
20260901164907 70 102 0.0 1.0 0.00 1.02 1.02 96 1015.1
20260901164407 70 205 0.0 2.0 0.00 1.02 1.02 96 1015.0
20260901163907 70 249 0.0 1.0 0.00 1.02 1.02 96 1015.1
20260901163356 70 129 0.0 2.0 0.00 1.02 1.02 96 1015.0
20260901162851 70 174 0.0 2.0 0.00 1.02 1.02 96 1015.1
20260901162349 70 315 0.0 0.0 0.00 1.02 1.02 96 1015.3
20260901161844 69 153 0.0 3.0 0.00 1.02 1.02 96 1015.2
20260901161338 69 211 1.0 2.0 0.00 1.02 1.02 96 1015.1
20260901160833 69 230 1.0 2.0 0.00 1.02 1.02 96 1015.1
20260901160330 69 230 0.0 0.0 0.00 1.02 1.02 96 1015.2
20260901155829 69 230 0.0 0.0 0.00 1.02 1.02 96 1015.2
20260901155323 69 142 0.0 1.0 0.00 1.02 1.02 96 1015.2
20260901154821 69 119 0.0 2.0 0.00 1.02 1.02 96 1015.2
20260901154319 69 124 0.0 1.0 0.00 1.02 1.02 96 1015.4
20260901153814 70 139 0.0 1.0 0.00 1.02 1.02 96 1015.4
20260901153314 69 142 0.0 1.0 0.00 1.02 1.02 96 1015.4
20260901152813 69 170 0.0 1.0 0.00 1.02 1.02 96 1015.3
20260901152312 69 142 0.0 0.0 0.00 1.02 1.02 96 1015.1
20260901151808 69 142 0.0 1.0 0.00 1.02 1.02 96 1015.3
20260901151302 68 217 0.0 1.0 0.00 1.02 1.02 96 1015.4
20260901150802 68 44 0.0 1.0 0.00 1.02 1.02 96 1015.3
20260901150300 68 157 0.0 1.0 0.00 1.02 1.02 96 1015.3
20260901145757 68 180 0.0 2.0 0.00 1.02 1.02 96 1015.1
20260901145251 68 254 1.0 2.0 0.00 1.02 1.02 96 1015.2
20260901144747 68 182 0.0 3.0 0.00 1.02 1.02 96 1015.0
20260901144243 68 247 2.0 3.0 0.02 1.02 1.02 96 1015.1
20260901143738 68 130 0.0 3.0 0.02 1.02 1.02 96 1015.1
20260901143234 68 175 1.0 2.0 0.02 1.02 1.02 96 1015.2
20260901142731 68 170 0.0 2.0 0.02 1.01 1.01 96 1015.1
20260901142229 68 229 0.0 2.0 0.02 1.01 1.01 96 1015.1
20260901141725 68 228 2.0 3.0 0.00 1.01 1.01 96 1014.9
20260901141225 68 139 0.0 3.0 0.02 1.01 1.01 96 1015.4
20260901140724 68 173 0.0 6.0 0.02 1.01 1.01 96 1015.3
20260901140222 68 131 2.0 3.0 0.28 1.00 1.00 96 1015.3
20260901135718 68 144 0.0 3.0 0.35 1.00 1.00 96 1015.4
20260901135212 68 232 1.0 4.0 0.26 0.94 0.94 96 1015.3
20260901134708 68 127 0.0 3.0 0.21 0.94 0.94 96 1015.2
20260901134203 68 253 1.0 3.0 0.00 0.90 0.90 96 1015.3
20260901133702 68 139 1.0 4.0 0.07 0.90 0.90 96 1015.2
20260901133201 68 158 1.0 5.0 0.33 0.90 0.90 96 1015.1
20260901132701 68 213 3.0 3.0 0.52 0.89 0.89 96 1015.4
20260901132155 68 153 0.0 8.0 0.83 0.85 0.85 96 1015.9
20260901131655 68 161 1.0 2.0 0.80 0.78 0.78 96 1015.7
20260901131155 68 322 0.0 1.0 0.59 0.71 0.71 96 1015.7
20260901130650 68 259 1.0 4.0 0.21 0.63 0.63 96 1015.7
20260901130148 68 264 0.0 2.0 0.02 0.60 0.60 96 1015.7
20260901125647 68 207 0.0 2.0 0.00 0.60 0.60 96 1015.4
20260901125142 68 230 2.0 3.0 0.09 0.60 0.60 96 1015.4
20260901124637 68 218 0.0 3.0 0.31 0.59 0.59 96 1015.6
20260901124137 68 203 0.0 3.0 0.24 0.55 0.55 96 1015.7
20260901123632 68 163 1.0 3.0 0.33 0.55 0.55 96 1015.8
20260901123131 68 76 0.0 4.0 0.69 0.53 0.53 96 1015.7
20260901122630 68 139 1.0 3.0 0.83 0.48 0.48 96 1016.1
20260901122125 67 138 0.0 3.0 0.73 0.40 0.40 96 1016.1
20260901121620 67 112 0.0 2.0 0.57 0.34 0.34 96 1016.2
20260901121115 67 273 2.0 2.0 0.40 0.28 0.28 96 1016.1
20260901120615 66 223 1.0 2.0 0.59 0.24 0.24 96 1016.1
20260901120110 66 142 0.0 1.0 0.54 0.19 0.19 96 1015.8
20260901115605 66 334 1.0 2.0 0.28 0.15 0.15 96 1015.8
20260901115102 66 263 0.0 2.0 0.00 0.10 0.10 96 1015.9
20260901114558 66 134 0.0 2.0 0.14 0.10 0.10 96 1015.5
20260901114057 66 108 2.0 2.0 0.19 0.10 0.10 96 1015.5
20260901113555 66 158 3.0 4.0 0.07 0.07 0.07 96 1015.8
20260901113046 66 345 0.0 2.0 0.19 0.07 0.07 96 1016.0
20260901112545 66 113 0.0 2.0 0.17 0.06 0.06 96 1015.7
20260901112040 66 317 0.0 2.0 0.05 0.04 0.04 96 1015.8
20260901111539 66 224 0.0 2.0 0.05 0.03 0.03 96 1015.5
20260901111037 66 142 0.0 1.0 0.02 0.03 0.03 96 1015.2
20260901110533 66 209 0.0 1.0 0.00 0.02 0.02 96 1015.2
20260901110029 66 129 0.0 2.0 0.00 0.02 0.02 96 1015.2
20260901105526 66 110 0.0 2.0 0.00 0.02 0.02 96 1015.2
20260901105024 66 44 0.0 2.0 0.00 0.02 0.02 96 1015.1
20260901104521 65 157 1.0 2.0 0.00 0.02 0.02 96 1015.2
20260901104016 65 347 0.0 2.0 0.00 0.02 0.02 96 1015.3
20260901103516 65 50 0.0 0.0 0.00 0.02 0.02 96 1015.4
20260901103012 65 105 0.0 1.0 0.00 0.02 0.02 96 1015.3
20260901102506 65 203 0.0 2.0 0.00 0.02 0.02 96 1015.3
20260901102000 65 6 0.0 0.0 0.00 0.02 0.02 96 1015.2
20260901101455 65 113 0.0 2.0 0.02 0.02 0.02 96 1015.1
20260901100950 65 145 0.0 2.0 0.02 0.02 0.02 96 1015.0
20260901100444 65 60 0.0 1.0 0.00 0.02 0.02 96 1015.2
20260901095944 65 113 0.0 1.0 0.00 0.02 0.02 96 1015.3
20260901095443 64 19 0.0 1.0 0.00 0.02 0.02 96 1015.4
20260901094935 65 37 0.0 1.0 0.00 0.02 0.02 96 1015.3
20260901094436 65 230 0.0 2.0 0.00 0.02 0.02 96 1015.1
20260901093935 65 131 0.0 1.0 0.00 0.02 0.02 96 1015.3
20260901093430 65 38 0.0 2.0 0.00 0.02 0.02 96 1015.3
20260901092925 65 157 0.0 1.0 0.00 0.02 0.02 96 1015.7
20260901092421 65 145 0.0 1.0 0.00 0.02 0.02 96 1015.3
20260901091917 65 129 0.0 1.0 0.00 0.02 0.02 96 1015.2
20260901091416 65 89 0.0 1.0 0.00 0.02 0.02 96 1015.5
20260901090912 65 142 0.0 1.0 0.00 0.02 0.02 96 1015.4
20260901090411 65 0 0.0 1.0 0.00 0.02 0.02 96 1015.4
20260901085907 65 125 2.0 2.0 0.00 0.02 0.02 96 1015.6
20260901085402 65 227 1.0 2.0 0.00 0.02 0.02 96 1015.7
20260901084859 65 147 0.0 2.0 0.00 0.02 0.02 96 1015.8
20260901084354 65 111 0.0 1.0 0.00 0.02 0.02 96 1016.0
20260901083850 65 240 0.0 2.0 0.00 0.02 0.02 96 1015.9
20260901083350 65 135 0.0 1.0 0.00 0.02 0.02 96 1015.9
20260901082848 65 124 0.0 0.0 0.00 0.02 0.02 96 1016.0
20260901082344 65 135 0.0 1.0 0.02 0.02 0.02 96 1016.1
20260901081838 65 217 0.0 2.0 0.05 0.02 0.02 96 1016.3
20260901081334 65 6 1.0 2.0 0.02 0.02 0.02 96 1016.1
20260901080834 65 193 0.0 2.0 0.00 0.01 0.01 96 1016.1
20260901080334 65 139 0.0 2.0 0.02 0.01 0.01 96 1016.2
20260901075828 65 98 0.0 1.0 0.02 0.01 0.01 96 1016.2
20260901075323 64 173 0.0 1.0 0.02 0.01 0.01 96 1016.3
20260901074819 64 175 0.0 0.0 0.02 0.00 0.00 96 1016.3
20260901074313 64 175 0.0 0.0 0.02 0.00 0.00 96 1016.4
20260901073808 65 175 0.0 0.0 0.00 0.00 0.00 96 1016.1
20260901073304 65 175 0.0 0.0 0.00 0.00 0.00 96 1016.1
20260901072800 65 175 0.0 2.0 0.00 0.00 0.00 96 1016.3
20260901072259 65 150 0.0 1.0 0.00 0.00 0.00 96 1016.1
20260901071754 64 157 0.0 1.0 0.00 0.00 0.00 96 1016.2
20260901071253 64 139 0.0 1.0 0.00 0.00 0.00 96 1016.3
20260901070752 64 217 0.0 0.0 0.00 0.00 0.00 96 1016.2
20260901070248 64 217 0.0 0.0 0.00 0.00 0.00 96 1016.3
20260901065747 64 217 0.0 1.0 0.00 0.00 0.00 96 1016.2
20260901065243 64 217 0.0 1.0 0.00 0.00 0.00 96 1016.3
20260901064739 64 230 0.0 0.0 0.00 0.00 0.00 96 1016.3
20260901064235 64 230 0.0 0.0 0.00 0.00 0.00 96 1016.4
20260901063732 64 230 0.0 0.0 0.00 0.00 0.00 96 1016.2
20260901063227 64 230 0.0 0.0 0.00 0.00 0.00 96 1016.4
20260901062723 64 230 0.0 0.0 0.00 0.00 0.00 96 1016.3
20260901062219 64 230 0.0 0.0 0.00 0.00 0.00 96 1016.3
20260901061715 64 230 0.0 0.0 0.00 0.00 0.00 96 1016.5
20260901061214 64 230 0.0 0.0 0.00 0.00 0.00 96 1016.5
20260901060709 63 230 0.0 0.0 0.00 0.00 0.00 96 1016.5
20260901060205 64 230 0.0 1.0 0.00 0.00 0.00 96 1016.6
20260901055700 63 89 0.0 0.0 0.00 0.00 0.00 96 1016.7
20260901055157 63 89 0.0 0.0 0.00 0.00 0.00 96 1016.8
20260901054654 63 89 0.0 0.0 0.00 0.00 0.00 96 1016.9
20260901054149 63 89 0.0 0.0 0.00 0.00 0.00 96 1016.7
20260901053645 63 142 0.0 1.0 0.00 0.00 0.00 96 1016.8
20260901053141 63 89 0.0 1.0 0.00 0.00 0.00 96 1017.2
20260901052636 63 66 0.0 0.0 0.00 0.00 0.00 96 1017.2
20260901052131 63 129 0.0 0.0 0.00 0.00 0.00 96 1017.3
20260901051631 63 129 0.0 0.0 0.00 0.00 0.00 96 1017.0
20260901051130 64 129 0.0 1.0 0.00 0.00 0.00 96 1016.9
20260901050625 64 135 0.0 1.0 0.00 0.00 0.00 96 1016.9
20260901050121 64 142 0.0 0.0 0.00 0.00 0.00 96 1017.0
20260901045615 64 142 0.0 0.0 0.00 0.00 0.00 96 1017.2
20260901045110 64 142 0.0 0.0 0.00 0.00 0.00 96 1017.2
20260901044606 64 142 0.0 0.0 0.00 0.00 0.00 96 1017.3
20260901044101 64 142 0.0 1.0 0.00 0.00 0.00 96 1017.0
20260901043557 64 142 0.0 0.0 0.00 0.00 0.00 96 1017.5
20260901043052 64 129 0.0 1.0 0.00 0.00 0.00 96 1017.2
20260901042551 64 135 0.0 1.0 0.00 0.00 0.00 96 1017.4
20260901042047 65 129 0.0 0.0 0.00 0.00 0.00 96 1017.2
20260901041542 65 142 0.0 1.0 0.00 0.00 0.00 96 1017.4
20260901041037 65 129 0.0 0.0 0.00 0.00 0.00 96 1017.2
20260901040536 65 129 0.0 1.0 0.00 0.00 0.00 96 1017.0
20260901040031 65 131 0.0 1.0 0.00 0.00 0.00 96 1017.2
20260901035528 65 124 0.0 1.0 0.00 0.41 0.41 96 1017.2
20260901035027 65 130 1.0 1.0 0.00 0.41 0.41 96 1017.2
20260901034522 65 130 0.0 1.0 0.00 0.41 0.41 96 1017.0
20260901034016 65 129 0.0 1.0 0.00 0.41 0.41 96 1017.2
20260901033515 65 129 0.0 0.0 0.00 0.41 0.41 96 1017.2
20260901033010 65 129 0.0 0.0 0.00 0.41 0.41 96 1017.3
20260901032504 65 129 0.0 0.0 0.00 0.41 0.41 96 1017.2
20260901032003 65 129 0.0 0.0 0.00 0.41 0.41 96 1017.0
20260901031459 65 129 0.0 1.0 0.00 0.41 0.41 96 1017.4
20260901030954 65 129 0.0 0.0 0.00 0.41 0.41 96 1017.3
20260901030449 65 129 0.0 1.0 0.00 0.41 0.41 96 1017.2